[[{"header":{"parameterUnit":"m.s-1","parameterCategory":1,"la1":30.2991,"la2":30.254,"lo1":-89.0895,"lo2":-89.0444,"dy":0.0017,"dx":0.0017,"nx":28,"ny":28,"refTime":"2025-07-04T03:00:00:Z","depth":0,"parameterNumber":2,"parameterNumberName":"U-component_of_WINDS"},"data":[0,0,0,0,0,0,0,0,0,0,0,0,0,0,0,0,0,0,0,0,0,0,0,0,0,0,0,0,0,0,0,0,0,0,0,0,0,0,0,0,0,0,0,0,0,0,0,0,0,0,0,0,0,0,0,0,0,0,-0.5199,-0.5198,0,-0.5175,-0.5175,-0.5175,-0.5094,-0.5093,-0.5091,-0.5089,-0.5068,-0.507,-0.5071,0,0,0,0,0,0,0,0,0,0,0,0,0,-0.5176,-0.5176,-0.5199,-0.5198,-0.5198,-0.5176,-0.5175,-0.5175,-0.5095,-0.5093,-0.509,-0.5088,-0.5068,-0.5069,-0.5071,0,0,0,0,0,0,0,0,0,0,0,0,0,-0.5172,-0.5177,-0.5199,-0.5155,-0.5151,-0.5176,-0.5175,-0.5175,-0.5095,-0.5093,-0.509,-0.5087,-0.5068,-0.5069,-0.5071,-0.5136,0,0,-0.5076,-0.5077,0,0,0,0,0,0,0,0,-0.5173,-0.5173,-0.5162,-0.5158,-0.5154,-0.5135,-0.5159,-0.5162,-0.5096,-0.5117,-0.5089,-0.5086,-0.5093,-0.5093,-0.5094,-0.5135,-0.5135,-0.5076,-0.5078,-0.5078,-0.5079,0,0,0,0,0,0,0,-0.5173,-0.5174,-0.519,-0.5162,-0.5157,-0.5138,-0.5134,-0.516,-0.5121,-0.5115,-0.5109,-0.5107,-0.509,-0.5093,-0.5093,-0.5134,-0.5076,-0.5078,-0.5079,-0.508,-0.5227,-0.523,0,0,0,0,0,0,-0.5179,-0.5175,-0.519,-0.5189,-0.5157,-0.514,-0.5136,-0.5144,-0.512,-0.5114,-0.5109,-0.5103,-0.5091,-0.5091,-0.5092,-0.5167,-0.5078,-0.508,-0.5081,-0.5224,-0.5228,-0.5231,0,0,0,0,0,0,-0.5179,-0.5181,-0.5191,-0.518,-0.518,-0.5144,-0.5153,-0.5145,-0.5147,-0.5116,-0.5109,-0.5119,-0.5089,-0.509,-0.5126,-0.5165,-0.5081,-0.5082,-0.5221,-0.5225,-0.5229,-0.5317,0,0,0,0,0,0,-0.5179,-0.5182,-0.5206,-0.5181,-0.5181,-0.5225,-0.5155,-0.5146,-0.515,-0.5142,-0.5123,-0.5117,-0.5087,-0.5124,-0.5127,-0.5166,-0.5084,-0.5217,-0.5223,-0.5228,-0.5311,-0.5324,-0.5336,0,0,0,0,0,-0.5178,-0.5232,-0.5208,-0.521,-0.521,-0.5227,-0.5227,-0.519,-0.5154,-0.5178,-0.5157,-0.5118,-0.516,-0.5128,-0.5132,-0.5171,-0.5215,-0.5221,-0.5228,-0.5305,-0.5322,-0.5335,0,0,0,0,0,0,-0.5264,-0.5228,-0.52,-0.5248,-0.5241,-0.5214,-0.5243,-0.5209,-0.5213,-0.5205,-0.516,-0.5156,-0.5199,-0.5188,-0.5153,-0.5233,-0.5181,-0.5188,-0.5238,-0.5254,-0.5266,-0.5268,-0.5085,0,0,0,0,0,-0.5288,-0.5305,-0.5273,-0.5318,-0.5316,-0.528,-0.5286,-0.5258,-0.525,-0.5247,-0.5229,-0.5223,-0.5234,-0.5243,-0.5252,-0.5308,-0.5303,-0.5337,-0.535,-0.536,-0.5368,-0.5396,-0.5411,-0.5252,-0.5252,-0.5252,0,0,-0.534,-0.5322,-0.5335,-0.5335,-0.5326,-0.5345,-0.5279,-0.5301,-0.5314,-0.525,-0.5283,-0.527,-0.526,-0.5306,-0.5326,-0.5299,-0.541,-0.5368,-0.5377,-0.5379,-0.5404,-0.5419,-0.5433,-0.5257,-0.5256,-0.5255,0,0,-0.5442,-0.543,-0.5466,-0.5458,-0.5445,-0.5421,-0.543,-0.5407,-0.5395,-0.5427,-0.5379,-0.5394,-0.5415,-0.541,-0.541,-0.5509,-0.5473,-0.5513,-0.5578,-0.5607,-0.5619,-0.563,-0.5666,-0.5679,-0.552,-0.5521,-0.5521,0,-0.5507,-0.5532,-0.549,-0.5514,-0.5516,-0.5457,-0.5494,-0.5488,-0.548,-0.5482,-0.5452,-0.5476,-0.5465,-0.5509,-0.5533,-0.5535,-0.5544,-0.5516,-0.5621,-0.5631,-0.5641,-0.5674,-0.5687,-0.5526,-0.5525,-0.5524,-0.5524,0,-0.5613,-0.5631,-0.5662,-0.5653,-0.5658,-0.5689,-0.5652,-0.5661,-0.5632,-0.5612,-0.5644,-0.5629,-0.5634,-0.5642,-0.5614,-0.5682,-0.5665,-0.5629,-0.5575,-0.5662,-0.5692,-0.5705,-0.5533,-0.5531,-0.5529,-0.5528,0,0,-0.5771,-0.5737,-0.5749,-0.5744,-0.5725,-0.5738,-0.5766,-0.5769,-0.5779,-0.5774,-0.5797,-0.5815,-0.578,-0.5781,-0.5752,-0.5777,-0.5856,-0.5736,-0.5736,-0.576,-0.5929,-0.5958,-0.5973,-0.5831,-0.5833,-0.5835,-0.593,0,-0.5869,-0.5914,-0.5875,-0.5928,-0.5944,-0.5887,-0.5912,-0.5903,-0.5884,-0.5895,-0.5874,-0.5888,-0.5841,-0.584,-0.5862,-0.5842,-0.5889,-0.5834,-0.5853,-0.5854,-0.5858,-0.5989,-0.6019,-0.611,-0.5942,-0.5944,-0.5945,0,-0.5989,-0.5988,-0.6042,-0.6018,-0.6023,-0.6046,-0.6045,-0.6056,-0.6045,-0.6029,-0.6028,-0.5992,-0.6018,-0.5965,-0.6001,-0.5964,-0.5969,-0.596,-0.5963,-0.5964,-0.5906,-0.5994,-0.6138,-0.6152,-0.5964,-0.5962,-0.5961,0,-0.6099,-0.6111,-0.6145,-0.6142,-0.6115,-0.6132,-0.6122,-0.6107,-0.6111,-0.6111,-0.6113,-0.6116,-0.6118,-0.6122,-0.6088,-0.6052,-0.6128,-0.6072,-0.6116,-0.6117,-0.6136,-0.6135,-0.6283,-0.6138,-0.6138,-0.6137,-0.6137,0,-0.6212,-0.6248,-0.6194,-0.6215,-0.6253,-0.6208,-0.6247,-0.6231,-0.6218,-0.6235,-0.6187,-0.6204,-0.6157,-0.617,-0.6143,-0.6177,-0.6178,-0.6166,-0.6159,-0.6171,-0.6173,-0.6175,-0.6168,-0.6141,-0.614,-0.6139,-0.6139,0,-0.6342,-0.6308,-0.634,-0.6311,-0.6305,-0.6334,-0.6309,-0.6327,-0.6304,-0.6326,-0.6329,-0.6293,-0.6305,-0.6271,-0.6278,-0.626,-0.6309,-0.6291,-0.6313,-0.6307,-0.6354,-0.635,-0.6508,-0.6527,-0.637,-0.6372,-0.6373,0,-0.6417,-0.6443,-0.6416,-0.6423,-0.6415,-0.6427,-0.643,-0.6387,-0.6393,-0.6381,-0.6401,-0.6409,-0.6412,-0.6434,-0.641,-0.6415,-0.6397,-0.6452,-0.6397,-0.6408,-0.6398,-0.6397,-0.64,-0.6464,-0.6466,-0.6467,-0.6468,0,-0.6554,-0.6535,-0.6541,-0.6541,-0.6546,-0.6545,-0.654,-0.6549,-0.6502,-0.6511,-0.6522,-0.6525,-0.6531,-0.654,-0.6539,-0.6528,-0.6491,-0.6485,-0.6496,-0.6509,-0.6521,-0.6515,-0.6344,-0.6482,-0.6481,-0.648,-0.6479,-0.6479,-0.6659,-0.6679,-0.6662,-0.6671,-0.6662,-0.6658,-0.6673,-0.6651,-0.6659,-0.666,-0.6634,-0.6651,-0.6638,-0.6633,-0.6626,-0.6638,-0.6613,-0.6629,-0.6633,-0.6637,-0.6645,-0.6518,-0.6638,-0.6638,-0.6637,-0.6637,-0.6637,0,-0.6794,-0.678,-0.6788,-0.6781,-0.6788,-0.675,-0.6742,-0.6751,-0.6765,-0.6755,-0.676,-0.6772,-0.678,-0.6755,-0.6759,-0.6773,-0.6756,-0.6776,-0.6775,-0.6773,-0.6667,-0.6658,-0.679,-0.679,-0.679,-0.679,-0.6789,-0.6789,-0.6864,-0.6896,-0.6875,-0.6901,-0.6887,-0.6902,-0.6901,-0.6897,-0.6889,-0.6904,-0.691,-0.6893,-0.6877,-0.6879,-0.6885,-0.6877,-0.6881,-0.6907,-0.6894,-0.6795,-0.6781,-0.6766,-0.6757,-0.6908,-0.6908,-0.6998,-0.6999,-0.7]},{"header":{"parameterUnit":"m.s-1","parameterCategory":1,"la1":30.2991,"la2":30.254,"lo1":-89.0895,"lo2":-89.0444,"dy":0.0017,"dx":0.0017,"nx":28,"ny":28,"refTime":"2025-07-04T03:00:00:Z","depth":0,"parameterNumber":3,"parameterNumberName":"V-component_of_WINDS"},"data":[0,0,0,0,0,0,0,0,0,0,0,0,0,0,0,0,0,0,0,0,0,0,0,0,0,0,0,0,0,0,0,0,0,0,0,0,0,0,0,0,0,0,0,0,0,0,0,0,0,0,0,0,0,0,0,0,0,0,-3.3594,-3.3596,0,-3.3723,-3.3725,-3.3726,-3.3718,-3.3716,-3.3714,-3.3712,-3.3843,-3.3848,-3.3853,0,0,0,0,0,0,0,0,0,0,0,0,0,-3.334,-3.3345,-3.3594,-3.3596,-3.3598,-3.3723,-3.3725,-3.3727,-3.3718,-3.3716,-3.3713,-3.3711,-3.3841,-3.3847,-3.3853,0,0,0,0,0,0,0,0,0,0,0,0,0,-3.3458,-3.3346,-3.3594,-3.3609,-3.3611,-3.3723,-3.3725,-3.3727,-3.3719,-3.3716,-3.3713,-3.371,-3.3839,-3.3847,-3.3854,-3.3959,0,0,-3.3878,-3.3882,0,0,0,0,0,0,0,0,-3.3451,-3.3467,-3.3605,-3.3608,-3.3611,-3.3702,-3.3683,-3.3805,-3.3719,-3.3678,-3.3712,-3.3709,-3.3798,-3.3809,-3.3839,-3.3966,-3.3971,-3.3879,-3.3884,-3.3887,-3.3889,0,0,0,0,0,0,0,-3.3443,-3.3462,-3.3645,-3.3607,-3.3611,-3.3608,-3.3622,-3.3706,-3.3752,-3.3681,-3.3681,-3.3696,-3.3799,-3.3832,-3.3842,-3.3973,-3.3879,-3.3886,-3.3891,-3.3894,-3.4192,-3.4195,0,0,0,0,0,0,-3.3432,-3.3455,-3.3641,-3.3649,-3.3522,-3.3615,-3.363,-3.3675,-3.3751,-3.376,-3.3699,-3.3695,-3.382,-3.3833,-3.3847,-3.3975,-3.3887,-3.3894,-3.3899,-3.4189,-3.4193,-3.4196,0,0,0,0,0,0,-3.3426,-3.3448,-3.3636,-3.3552,-3.3576,-3.3623,-3.3673,-3.3679,-3.3712,-3.3764,-3.3772,-3.3724,-3.3818,-3.3836,-3.3932,-3.3979,-3.3898,-3.3905,-3.4185,-3.419,-3.4194,-3.4231,0,0,0,0,0,0,-3.3419,-3.3447,-3.3487,-3.3553,-3.358,-3.3719,-3.3676,-3.3684,-3.3726,-3.3723,-3.379,-3.3798,-3.3817,-3.392,-3.3939,-3.3989,-3.3911,-3.4181,-3.4187,-3.4193,-3.4226,-3.4237,-3.4246,0,0,0,0,0,-3.341,-3.3492,-3.3489,-3.3512,-3.3632,-3.3722,-3.3737,-3.3758,-3.373,-3.3771,-3.3804,-3.3796,-3.3971,-3.393,-3.3952,-3.4004,-3.4178,-3.4185,-3.4192,-3.4222,-3.4235,-3.4246,0,0,0,0,0,0,-3.343,-3.3501,-3.3499,-3.3605,-3.3657,-3.372,-3.3773,-3.3771,-3.3832,-3.3827,-3.3849,-3.3864,-3.3961,-3.3992,-3.3945,-3.411,-3.4071,-3.4083,-3.4086,-3.4098,-3.4108,-3.4098,-3.3918,0,0,0,0,0,-3.3447,-3.3515,-3.3573,-3.3661,-3.3687,-3.3725,-3.3765,-3.3776,-3.3832,-3.3854,-3.3894,-3.3948,-3.4015,-3.4058,-3.4123,-3.4231,-3.4245,-3.4278,-3.4288,-3.4296,-3.4305,-3.4364,-3.4379,-3.422,-3.422,-3.422,0,0,-3.3483,-3.353,-3.3571,-3.3666,-3.3708,-3.3777,-3.3744,-3.3818,-3.3869,-3.3865,-3.3958,-3.399,-3.4051,-3.4153,-3.42,-3.4182,-3.4353,-3.4305,-3.4311,-3.4316,-3.4373,-3.4388,-3.4402,-3.4225,-3.4224,-3.4223,0,0,-3.3582,-3.3625,-3.3703,-3.3746,-3.381,-3.3835,-3.3854,-3.3917,-3.3938,-3.4032,-3.403,-3.4091,-3.4206,-3.425,-3.4287,-3.4404,-3.4398,-3.4424,-3.4476,-3.4533,-3.4546,-3.4557,-3.4598,-3.4613,-3.4434,-3.4434,-3.4434,0,-3.3618,-3.3722,-3.3743,-3.3818,-3.386,-3.3859,-3.3938,-3.3979,-3.4061,-3.4089,-3.4068,-3.4213,-3.4254,-3.4366,-3.4395,-3.4425,-3.4447,-3.4416,-3.4543,-3.4554,-3.4565,-3.4604,-3.462,-3.4437,-3.4436,-3.4436,-3.4436,0,-3.3763,-3.3835,-3.389,-3.3969,-3.4017,-3.4094,-3.4126,-3.4172,-3.4179,-3.4206,-3.4302,-3.4352,-3.4426,-3.4454,-3.4461,-3.4567,-3.4554,-3.4538,-3.4499,-3.4582,-3.462,-3.4635,-3.4441,-3.444,-3.4439,-3.4438,0,0,-3.3878,-3.3968,-3.3988,-3.4024,-3.4096,-3.4152,-3.4228,-3.4301,-3.434,-3.4397,-3.4461,-3.4559,-3.4544,-3.4587,-3.4599,-3.465,-3.4738,-3.4627,-3.4629,-3.4646,-3.4858,-3.4869,-3.4887,-3.4736,-3.4739,-3.4741,-3.4853,0,-3.3984,-3.412,-3.4141,-3.426,-3.4327,-3.4328,-3.4395,-3.4445,-3.4473,-3.4533,-3.4563,-3.4632,-3.4608,-3.4633,-3.4683,-3.4717,-3.4781,-3.4709,-3.4795,-3.4798,-3.4779,-3.4906,-3.4919,-3.5021,-3.4867,-3.487,-3.4872,0,-3.4126,-3.4187,-3.4313,-3.4375,-3.4404,-3.4464,-3.4533,-3.4591,-3.4648,-3.4664,-3.4712,-3.4719,-3.4798,-3.4756,-3.4865,-3.4816,-3.4852,-3.4874,-3.4879,-3.4887,-3.4839,-3.4917,-3.5055,-3.507,-3.4895,-3.4893,-3.4892,0,-3.4197,-3.4311,-3.4401,-3.4432,-3.4507,-3.4548,-3.4581,-3.4636,-3.4679,-3.4739,-3.4767,-3.4836,-3.4873,-3.4926,-3.4951,-3.4918,-3.5058,-3.5019,-3.5073,-3.5073,-3.5102,-3.51,-3.5247,-3.5127,-3.5127,-3.5126,-3.5126,0,-3.4313,-3.439,-3.4433,-3.4489,-3.4575,-3.4599,-3.4683,-3.4715,-3.4764,-3.4825,-3.483,-3.4887,-3.4917,-3.4979,-3.4999,-3.5086,-3.5103,-3.5118,-3.5122,-3.5117,-3.5115,-3.5141,-3.5134,-3.513,-3.513,-3.5129,-3.5128,0,-3.4407,-3.4439,-3.4537,-3.46,-3.4618,-3.4678,-3.4732,-3.4786,-3.4813,-3.4891,-3.491,-3.4953,-3.5026,-3.5057,-3.5146,-3.5159,-3.5259,-3.5258,-3.524,-3.5241,-3.5294,-3.5288,-3.5462,-3.5485,-3.535,-3.5352,-3.5353,0,-3.4478,-3.4537,-3.4607,-3.4649,-3.4683,-3.475,-3.4794,-3.482,-3.4865,-3.4935,-3.498,-3.5053,-3.5113,-3.523,-3.5269,-3.5337,-3.5337,-3.5394,-3.5348,-3.5341,-3.5338,-3.5334,-3.5339,-3.5402,-3.5403,-3.5404,-3.5405,0,-3.4602,-3.4615,-3.4678,-3.4747,-3.4799,-3.4855,-3.4909,-3.4942,-3.4976,-3.5027,-3.5102,-3.5149,-3.524,-3.5312,-3.5383,-3.5417,-3.5417,-3.5419,-3.5436,-3.5431,-3.5417,-3.5425,-3.5262,-3.5415,-3.5414,-3.5413,-3.5413,-3.5412,-3.4686,-3.4739,-3.4796,-3.4866,-3.491,-3.496,-3.5014,-3.5048,-3.5111,-3.5188,-3.5199,-3.5279,-3.5335,-3.543,-3.5467,-3.553,-3.5516,-3.5539,-3.5545,-3.555,-3.5553,-3.5408,-3.5543,-3.5543,-3.5542,-3.5542,-3.5542,0,-3.4809,-3.4846,-3.4911,-3.4986,-3.5042,-3.5037,-3.5097,-3.5143,-3.5214,-3.5266,-3.5325,-3.5411,-3.5482,-3.5527,-3.5597,-3.5639,-3.5641,-3.5657,-3.5653,-3.5661,-3.5562,-3.5541,-3.5654,-3.5654,-3.5654,-3.5654,-3.5654,-3.5654,-3.488,-3.4968,-3.4988,-3.5099,-3.5135,-3.5214,-3.5248,-3.5295,-3.5337,-3.5433,-3.5492,-3.5521,-3.557,-3.5645,-3.5709,-3.572,-3.5746,-3.5763,-3.5773,-3.568,-3.5668,-3.5657,-3.5637,-3.5768,-3.5769,-3.5867,-3.5868,-3.5868]}]]